OCEANSAT-2

Last updated on Tue Dec 09 2025 00:02:30 GMT+0000 (Coordinated Universal Time)

1 35931U 09051A 25342.61575611 -.00000147 00000+0 -74881-4 0 9999 2 35931 98.2226 343.6347 0016379 55.7946 304.4770 13.99625607852675
UTC large
Height (km)
Speed (km/s)
/
Latitude / Longitude
Inclination (degrees)
Orbital Period (minutes)
Azimuth
Elevation
Range (km)
Doppler Factor

Next 0 passes for location: London (51.5072 / 0.1276)

Sorry there are no passes over London.